Location: Pitton
(51.0667°N, 1.7000°W)
Time: 02:26:58
(UTC+00:00)

CZ-2C R/B - Pass Details

Date: 17 September 2019
Orbit: 639 x 705 km, 98.4° (Epoch: 15 October)

Event Time Altitude Azimuth Distance (km) Brightness Sun altitude
Rises 19:24:33 0° 17° (NNE) 2,992 7.1 -11.2°
Reaches altitude 10° 19:26:50 10° 22° (NNE) 2,068 6.2 -11.5°
Maximum altitude 19:31:15 56° 101° (E) 771 3.7 -12.2°
Drops below altitude 10° 19:35:36 10° 180° (S) 2,030 6.0 -12.8°
Sets 19:37:49 0° 185° (S) 2,933 6.9 -13.2°
